Year,Month,Day,Hour,Minute,Value (Times are PST for temperature in C)
2009,07,31,00,00,20.80
2009,07,31,00,01,20.90
2009,07,31,00,02,20.90
2009,07,31,00,03,20.90
2009,07,31,00,04,20.90
2009,07,31,00,05,20.90
2009,07,31,00,06,20.90
2009,07,31,00,07,20.90
2009,07,31,00,08,20.90
2009,07,31,00,09,20.90
2009,07,31,00,10,20.90
2009,07,31,00,11,20.90
2009,07,31,00,12,20.90
2009,07,31,00,13,20.90
2009,07,31,00,14,20.90
2009,07,31,00,15,20.80
2009,07,31,00,16,20.80
2009,07,31,00,17,20.90
2009,07,31,00,18,20.90
2009,07,31,00,19,20.90
2009,07,31,00,20,20.90
2009,07,31,00,21,20.90
2009,07,31,00,22,20.90
2009,07,31,00,23,20.90
2009,07,31,00,24,20.90
2009,07,31,00,25,20.90
2009,07,31,00,26,20.90
2009,07,31,00,27,20.90
2009,07,31,00,28,20.90
2009,07,31,00,29,20.90
2009,07,31,00,30,20.90
2009,07,31,00,31,20.90
2009,07,31,00,32,20.90
2009,07,31,00,33,20.90
2009,07,31,00,34,20.90
2009,07,31,00,35,20.90
2009,07,31,00,36,20.90
2009,07,31,00,37,20.90
2009,07,31,00,38,20.90
2009,07,31,00,39,21.00
2009,07,31,00,40,21.00
2009,07,31,00,41,21.00
2009,07,31,00,42,21.10
2009,07,31,00,43,21.10
2009,07,31,00,44,21.10
2009,07,31,00,45,21.20
2009,07,31,00,46,21.20
2009,07,31,00,47,21.10
2009,07,31,00,48,21.10
2009,07,31,00,49,21.00
2009,07,31,00,50,20.90
2009,07,31,00,51,20.80
2009,07,31,00,52,20.80
2009,07,31,00,53,20.70
2009,07,31,00,54,20.60
2009,07,31,00,55,20.50
2009,07,31,00,56,20.30
2009,07,31,00,57,20.10
2009,07,31,00,58,19.90
2009,07,31,00,59,19.70
2009,07,31,01,00,19.50
2009,07,31,01,01,19.30
2009,07,31,01,02,19.10
2009,07,31,01,03,18.90
2009,07,31,01,04,18.70
2009,07,31,01,05,18.50
2009,07,31,01,06,18.30
2009,07,31,01,07,18.20
2009,07,31,01,08,18.10
2009,07,31,01,09,18.00
2009,07,31,01,10,17.90
2009,07,31,01,11,17.90
2009,07,31,01,12,17.80
2009,07,31,01,13,17.80
2009,07,31,01,14,17.70
2009,07,31,01,15,17.70
2009,07,31,01,16,17.70
2009,07,31,01,17,17.60
2009,07,31,01,18,17.60
2009,07,31,01,19,17.50
2009,07,31,01,20,17.50
2009,07,31,01,21,17.50
2009,07,31,01,22,17.50
2009,07,31,01,23,17.40
2009,07,31,01,24,17.40
2009,07,31,01,25,17.40
2009,07,31,01,26,17.40
2009,07,31,01,27,17.30
2009,07,31,01,28,17.30
2009,07,31,01,29,17.30
2009,07,31,01,30,17.30
2009,07,31,01,31,17.30
2009,07,31,01,32,17.20
2009,07,31,01,33,17.10
2009,07,31,01,34,17.10
2009,07,31,01,35,17.00
2009,07,31,01,36,17.00
2009,07,31,01,37,17.00
2009,07,31,01,38,16.90
2009,07,31,01,39,16.90
2009,07,31,01,40,16.90
2009,07,31,01,41,16.80
2009,07,31,01,42,16.80
2009,07,31,01,43,16.80
2009,07,31,01,44,16.70
2009,07,31,01,45,16.70
2009,07,31,01,46,16.70
2009,07,31,01,47,16.70
2009,07,31,01,48,16.70
2009,07,31,01,49,16.70
2009,07,31,01,50,16.70
2009,07,31,01,51,16.70
2009,07,31,01,52,16.70
2009,07,31,01,53,16.70
2009,07,31,01,54,16.70
2009,07,31,01,55,16.70
2009,07,31,01,56,16.70
2009,07,31,01,57,16.70
2009,07,31,01,58,16.70
2009,07,31,01,59,16.80
2009,07,31,02,00,16.80
2009,07,31,02,01,16.80
2009,07,31,02,02,16.80
2009,07,31,02,03,16.80
2009,07,31,02,04,16.80
2009,07,31,02,05,16.80
2009,07,31,02,06,16.80
2009,07,31,02,07,16.80
2009,07,31,02,08,16.70
2009,07,31,02,09,16.70
2009,07,31,02,10,16.70
2009,07,31,02,11,16.70
2009,07,31,02,12,16.70
2009,07,31,02,13,16.70
2009,07,31,02,14,16.70
2009,07,31,02,15,16.70
2009,07,31,02,16,16.60
2009,07,31,02,17,16.60
2009,07,31,02,18,16.60
2009,07,31,02,19,16.60
2009,07,31,02,20,16.50
2009,07,31,02,21,16.40
2009,07,31,02,22,16.40
2009,07,31,02,23,16.40
2009,07,31,02,24,16.40
2009,07,31,02,25,16.30
2009,07,31,02,26,16.30
2009,07,31,02,27,16.30
2009,07,31,02,28,16.20
2009,07,31,02,29,16.20
2009,07,31,02,30,16.10
2009,07,31,02,31,16.10
2009,07,31,02,32,16.00
2009,07,31,02,33,15.90
2009,07,31,02,34,15.90
2009,07,31,02,35,15.80
2009,07,31,02,36,15.80
2009,07,31,02,37,15.80
2009,07,31,02,38,15.80
2009,07,31,02,39,15.70
2009,07,31,02,40,15.70
2009,07,31,02,41,15.70
2009,07,31,02,42,15.60
2009,07,31,02,43,15.60
2009,07,31,02,44,15.60
2009,07,31,02,45,15.50
2009,07,31,02,46,15.50
2009,07,31,02,47,15.50
2009,07,31,02,48,15.50
2009,07,31,02,49,15.40
2009,07,31,02,50,15.40
2009,07,31,02,51,15.40
2009,07,31,02,52,15.40
2009,07,31,02,53,15.30
2009,07,31,02,54,15.30
2009,07,31,02,55,15.30
2009,07,31,02,56,15.30
2009,07,31,02,57,15.30
2009,07,31,02,58,15.30
2009,07,31,02,59,15.30
2009,07,31,03,00,15.30
2009,07,31,03,01,15.30
2009,07,31,03,02,15.30
2009,07,31,03,03,15.30
2009,07,31,03,04,15.30
2009,07,31,03,05,15.30
2009,07,31,03,06,15.30
2009,07,31,03,07,15.30
2009,07,31,03,08,15.30
2009,07,31,03,09,15.30
2009,07,31,03,10,15.30
2009,07,31,03,11,15.30
2009,07,31,03,12,15.30
2009,07,31,03,13,15.30
2009,07,31,03,14,15.30
2009,07,31,03,15,15.30
2009,07,31,03,16,15.30
2009,07,31,03,17,15.30
2009,07,31,03,18,15.30
2009,07,31,03,19,15.30
2009,07,31,03,20,15.30
2009,07,31,03,21,15.30
2009,07,31,03,22,15.30
2009,07,31,03,23,15.30
2009,07,31,03,24,15.30
2009,07,31,03,25,15.30
2009,07,31,03,26,15.30
2009,07,31,03,27,15.30
2009,07,31,03,28,15.30
2009,07,31,03,29,15.30
2009,07,31,03,30,15.30
2009,07,31,03,31,15.30
2009,07,31,03,32,15.40
2009,07,31,03,33,15.40
2009,07,31,03,34,15.40
2009,07,31,03,35,15.40
2009,07,31,03,36,15.40
2009,07,31,03,37,15.50
2009,07,31,03,38,15.50
2009,07,31,03,39,15.50
2009,07,31,03,40,15.50
2009,07,31,03,41,15.50
2009,07,31,03,42,15.50
2009,07,31,03,43,15.60
2009,07,31,03,44,15.60
2009,07,31,03,45,15.70
2009,07,31,03,46,15.80
2009,07,31,03,47,15.80
2009,07,31,03,48,15.80
2009,07,31,03,49,15.90
2009,07,31,03,50,16.00
2009,07,31,03,51,16.10
2009,07,31,03,52,16.10
2009,07,31,03,53,16.20
2009,07,31,03,54,16.30
2009,07,31,03,55,16.30
2009,07,31,03,56,16.40
2009,07,31,03,57,16.40
2009,07,31,03,58,16.50
2009,07,31,03,59,16.60
2009,07,31,04,00,16.60
2009,07,31,04,01,16.70
2009,07,31,04,02,16.70
2009,07,31,04,03,16.80
2009,07,31,04,04,16.90
2009,07,31,04,05,16.90
2009,07,31,04,06,16.90
2009,07,31,04,07,17.00
2009,07,31,04,08,17.00
2009,07,31,04,09,17.00
2009,07,31,04,10,17.00
2009,07,31,04,11,17.00
2009,07,31,04,12,17.00
2009,07,31,04,13,17.00
2009,07,31,04,14,17.00
2009,07,31,04,15,17.10
2009,07,31,04,16,17.10
2009,07,31,04,17,17.10
2009,07,31,04,18,17.10
2009,07,31,04,19,17.10
2009,07,31,04,20,17.10
2009,07,31,04,21,17.10
2009,07,31,04,22,17.10
2009,07,31,04,23,17.00
2009,07,31,04,24,17.00
2009,07,31,04,25,17.00
2009,07,31,04,26,17.00
2009,07,31,04,27,17.00
2009,07,31,04,28,17.00
2009,07,31,04,29,17.00
2009,07,31,04,30,17.00
2009,07,31,04,31,17.00
2009,07,31,04,32,16.90
2009,07,31,04,33,16.90
2009,07,31,04,34,16.90
2009,07,31,04,35,16.90
2009,07,31,04,36,16.90
2009,07,31,04,37,16.80
2009,07,31,04,38,16.80
2009,07,31,04,39,16.80
2009,07,31,04,40,16.70
2009,07,31,04,41,16.70
2009,07,31,04,42,16.70
2009,07,31,04,43,16.70
2009,07,31,04,44,16.70
2009,07,31,04,45,16.70
2009,07,31,04,46,16.60
2009,07,31,04,47,16.60
2009,07,31,04,48,16.50
2009,07,31,04,49,16.40
2009,07,31,04,50,16.40
2009,07,31,04,51,16.40
2009,07,31,04,52,16.40
2009,07,31,04,53,16.40
2009,07,31,04,54,16.40
2009,07,31,04,55,16.30
2009,07,31,04,56,16.30
2009,07,31,04,57,16.30
2009,07,31,04,58,16.30
2009,07,31,04,59,16.30
2009,07,31,05,00,16.20
2009,07,31,05,01,16.20
2009,07,31,05,02,16.20
2009,07,31,05,03,16.10
2009,07,31,05,04,16.10
2009,07,31,05,05,16.10
2009,07,31,05,06,16.10
2009,07,31,05,07,16.10
2009,07,31,05,08,16.10
2009,07,31,05,09,16.10
2009,07,31,05,10,16.00
2009,07,31,05,11,15.90
2009,07,31,05,12,15.90
2009,07,31,05,13,15.90
2009,07,31,05,14,15.90
2009,07,31,05,15,15.90
2009,07,31,05,16,15.80
2009,07,31,05,17,15.80
2009,07,31,05,18,15.80
2009,07,31,05,19,15.80
2009,07,31,05,20,15.80
2009,07,31,05,21,15.80
2009,07,31,05,22,15.80
2009,07,31,05,23,15.70
2009,07,31,05,24,15.70
2009,07,31,05,25,15.70
2009,07,31,05,26,15.60
2009,07,31,05,27,15.60
2009,07,31,05,28,15.60
2009,07,31,05,29,15.50
2009,07,31,05,30,15.50
2009,07,31,05,31,15.50
2009,07,31,05,32,15.50
2009,07,31,05,33,15.50
2009,07,31,05,34,15.40
2009,07,31,05,35,15.40
2009,07,31,05,36,15.40
2009,07,31,05,37,15.40
2009,07,31,05,38,15.40
2009,07,31,05,39,15.30
2009,07,31,05,40,15.30
2009,07,31,05,41,15.30
2009,07,31,05,42,15.30
2009,07,31,05,43,15.30
2009,07,31,05,44,15.30
2009,07,31,05,45,15.30
2009,07,31,05,46,15.30
2009,07,31,05,47,15.30
2009,07,31,05,48,15.20
2009,07,31,05,49,15.20
2009,07,31,05,50,15.20
2009,07,31,05,51,15.20
2009,07,31,05,52,15.20
2009,07,31,05,53,15.10
2009,07,31,05,54,15.10
2009,07,31,05,55,15.10
2009,07,31,05,56,15.10
2009,07,31,05,57,15.10
2009,07,31,05,58,15.10
2009,07,31,05,59,15.00
2009,07,31,06,00,15.00
2009,07,31,06,01,15.00
2009,07,31,06,02,14.90
2009,07,31,06,03,14.90
2009,07,31,06,04,14.90
2009,07,31,06,05,14.90
2009,07,31,06,06,14.90
2009,07,31,06,07,14.90
2009,07,31,06,08,14.80
2009,07,31,06,09,14.80
2009,07,31,06,10,14.80
2009,07,31,06,11,14.80
2009,07,31,06,12,14.80
2009,07,31,06,13,14.80
2009,07,31,06,14,14.80
2009,07,31,06,15,14.80
2009,07,31,06,16,14.80
2009,07,31,06,17,14.80
2009,07,31,06,18,14.80
2009,07,31,06,19,14.80
2009,07,31,06,20,14.80
2009,07,31,06,21,14.80
2009,07,31,06,22,14.80
2009,07,31,06,23,14.80
2009,07,31,06,24,14.80
2009,07,31,06,25,14.80
2009,07,31,06,26,14.80
2009,07,31,06,27,14.80
2009,07,31,06,28,14.80
2009,07,31,06,29,14.80
2009,07,31,06,30,14.70
2009,07,31,06,31,14.70
2009,07,31,06,32,14.70
2009,07,31,06,33,14.70
2009,07,31,06,34,14.80
2009,07,31,06,35,14.80
2009,07,31,06,36,14.80
2009,07,31,06,37,14.80
2009,07,31,06,38,14.80
2009,07,31,06,39,14.80
2009,07,31,06,40,14.80
2009,07,31,06,41,14.80
2009,07,31,06,42,14.80
2009,07,31,06,43,14.80
2009,07,31,06,44,14.90
2009,07,31,06,45,14.90
2009,07,31,06,46,14.90
2009,07,31,06,47,15.00
2009,07,31,06,48,15.00
2009,07,31,06,49,15.00
2009,07,31,06,50,15.10
2009,07,31,06,51,15.10
2009,07,31,06,52,15.10
2009,07,31,06,53,15.10
2009,07,31,06,54,15.20
2009,07,31,06,55,15.20
2009,07,31,06,56,15.20
2009,07,31,06,57,15.30
2009,07,31,06,58,15.30
2009,07,31,06,59,15.30
2009,07,31,07,00,15.30
2009,07,31,07,01,15.30
2009,07,31,07,02,15.30
2009,07,31,07,03,15.30
2009,07,31,07,04,15.30
2009,07,31,07,05,15.30
2009,07,31,07,06,15.30
2009,07,31,07,07,15.40
2009,07,31,07,08,15.40
2009,07,31,07,09,15.30
2009,07,31,07,10,15.40
2009,07,31,07,11,15.40
2009,07,31,07,12,15.40
2009,07,31,07,13,15.40
2009,07,31,07,14,15.40
2009,07,31,07,15,15.50
2009,07,31,07,16,15.50
2009,07,31,07,17,15.50
2009,07,31,07,18,15.60
2009,07,31,07,19,15.60
2009,07,31,07,20,15.60
2009,07,31,07,21,15.70
2009,07,31,07,22,15.70
2009,07,31,07,23,15.70
2009,07,31,07,24,15.70
2009,07,31,07,25,15.80
2009,07,31,07,26,15.70
2009,07,31,07,27,15.70
2009,07,31,07,28,15.80
2009,07,31,07,29,15.80
2009,07,31,07,30,15.80
2009,07,31,07,31,15.90
2009,07,31,07,32,16.00
2009,07,31,07,33,16.10
2009,07,31,07,34,16.10
2009,07,31,07,35,16.20
2009,07,31,07,36,16.30
2009,07,31,07,37,16.30
2009,07,31,07,38,16.40
2009,07,31,07,39,16.40
2009,07,31,07,40,16.50
2009,07,31,07,41,16.60
2009,07,31,07,42,16.60
2009,07,31,07,43,16.70
2009,07,31,07,44,16.70
2009,07,31,07,45,16.70
2009,07,31,07,46,16.80
2009,07,31,07,47,16.80
2009,07,31,07,48,16.80
2009,07,31,07,49,16.90
2009,07,31,07,50,17.00
2009,07,31,07,51,17.00
2009,07,31,07,52,17.00
2009,07,31,07,53,17.10
2009,07,31,07,54,17.10
2009,07,31,07,55,17.10
2009,07,31,07,56,17.10
2009,07,31,07,57,17.10
2009,07,31,07,58,17.00
2009,07,31,07,59,17.00
2009,07,31,08,00,17.00
2009,07,31,08,01,17.10
2009,07,31,08,02,17.10
2009,07,31,08,03,17.20
2009,07,31,08,04,17.20
2009,07,31,08,05,17.20
2009,07,31,08,06,17.20
2009,07,31,08,07,17.30
2009,07,31,08,08,17.30
2009,07,31,08,09,17.30
2009,07,31,08,10,17.30
2009,07,31,08,11,17.40
2009,07,31,08,12,17.40
2009,07,31,08,13,17.40
2009,07,31,08,14,17.50
2009,07,31,08,15,17.50
2009,07,31,08,16,17.50
2009,07,31,08,17,17.50
2009,07,31,08,18,17.50
2009,07,31,08,19,17.50
2009,07,31,08,20,17.50
2009,07,31,08,21,17.50
2009,07,31,08,22,17.50
2009,07,31,08,23,17.60
2009,07,31,08,24,17.70
2009,07,31,08,25,17.80
2009,07,31,08,26,17.90
2009,07,31,08,27,17.90
2009,07,31,08,28,17.90
2009,07,31,08,29,17.90
2009,07,31,08,30,17.90
2009,07,31,08,31,17.90
2009,07,31,08,32,18.00
2009,07,31,08,33,18.10
2009,07,31,08,34,18.20
2009,07,31,08,35,18.30
2009,07,31,08,36,18.40
2009,07,31,08,37,18.50
2009,07,31,08,38,18.50
2009,07,31,08,39,18.60
2009,07,31,08,40,18.70
2009,07,31,08,41,18.80
2009,07,31,08,42,18.90
2009,07,31,08,43,18.90
2009,07,31,08,44,18.90
2009,07,31,08,45,18.90
2009,07,31,08,46,18.80
2009,07,31,08,47,18.70
2009,07,31,08,48,18.70
2009,07,31,08,49,18.60
2009,07,31,08,50,18.60
2009,07,31,08,51,18.60
2009,07,31,08,52,18.60
2009,07,31,08,53,18.60
2009,07,31,08,54,18.70
2009,07,31,08,55,18.70
2009,07,31,08,56,18.70
2009,07,31,08,57,18.70
2009,07,31,08,58,18.80
2009,07,31,08,59,18.80
2009,07,31,09,00,18.90
2009,07,31,09,01,18.90
2009,07,31,09,02,18.90
2009,07,31,09,03,18.90
2009,07,31,09,04,18.90
2009,07,31,09,05,18.90
2009,07,31,09,06,18.90
2009,07,31,09,07,19.00
2009,07,31,09,08,19.10
2009,07,31,09,09,19.10
2009,07,31,09,10,19.10
2009,07,31,09,11,19.10
2009,07,31,09,12,19.10
2009,07,31,09,13,19.20
2009,07,31,09,14,19.20
2009,07,31,09,15,19.20
2009,07,31,09,16,19.20
2009,07,31,09,17,19.30
2009,07,31,09,18,19.30
2009,07,31,09,19,19.30
2009,07,31,09,20,19.40
2009,07,31,09,21,19.50
2009,07,31,09,22,19.60
2009,07,31,09,23,19.60
2009,07,31,09,24,19.60
2009,07,31,09,25,19.60
2009,07,31,09,26,19.60
2009,07,31,09,27,19.60
2009,07,31,09,28,19.60
2009,07,31,09,29,19.60
2009,07,31,09,30,19.70
2009,07,31,09,31,19.70
2009,07,31,09,32,19.70
2009,07,31,09,33,19.70
2009,07,31,09,34,19.70
2009,07,31,09,35,19.70
2009,07,31,09,36,19.80
2009,07,31,09,37,19.80
2009,07,31,09,38,19.90
2009,07,31,09,39,20.00
2009,07,31,09,40,20.10
2009,07,31,09,41,20.00
2009,07,31,09,42,19.90
2009,07,31,09,43,19.80
2009,07,31,09,44,19.80
2009,07,31,09,45,19.70
2009,07,31,09,46,19.60
2009,07,31,09,47,19.50
2009,07,31,09,48,19.40
2009,07,31,09,49,19.40
2009,07,31,09,50,19.30
2009,07,31,09,51,19.20
2009,07,31,09,52,19.10
2009,07,31,09,53,19.10
2009,07,31,09,54,18.90
2009,07,31,09,55,18.80
2009,07,31,09,56,18.70
2009,07,31,09,57,18.70
2009,07,31,09,58,18.70
2009,07,31,09,59,18.60
2009,07,31,10,00,18.60
2009,07,31,10,01,18.60
2009,07,31,10,02,18.60
2009,07,31,10,03,18.60
2009,07,31,10,04,18.60
2009,07,31,10,05,18.60
2009,07,31,10,06,18.60
2009,07,31,10,07,18.60
2009,07,31,10,08,18.70
2009,07,31,10,09,18.70
2009,07,31,10,10,18.80
2009,07,31,10,11,18.90
2009,07,31,10,12,18.90
2009,07,31,10,13,19.10
2009,07,31,10,14,19.10
2009,07,31,10,15,19.10
2009,07,31,10,16,19.20
2009,07,31,10,17,19.30
2009,07,31,10,18,19.30
2009,07,31,10,19,19.30
2009,07,31,10,20,19.20
2009,07,31,10,21,19.20
2009,07,31,10,22,19.10
2009,07,31,10,23,19.10
2009,07,31,10,24,19.10
2009,07,31,10,25,19.10
2009,07,31,10,26,19.10
2009,07,31,10,27,19.20
2009,07,31,10,28,19.30
2009,07,31,10,29,19.40
2009,07,31,10,30,19.50
2009,07,31,10,31,19.60
2009,07,31,10,32,19.80
2009,07,31,10,33,20.00
2009,07,31,10,34,20.20
2009,07,31,10,35,20.30
2009,07,31,10,36,20.50
2009,07,31,10,37,20.60
2009,07,31,10,38,20.50
2009,07,31,10,39,20.60
2009,07,31,10,40,20.70
2009,07,31,10,41,20.70
2009,07,31,10,42,20.70
2009,07,31,10,43,20.70
2009,07,31,10,44,20.80
2009,07,31,10,45,20.80
2009,07,31,10,46,20.80
2009,07,31,10,47,20.70
2009,07,31,10,48,20.70
2009,07,31,10,49,20.70
2009,07,31,10,50,20.70
2009,07,31,10,51,20.70
2009,07,31,10,52,20.70
2009,07,31,10,53,20.70
2009,07,31,10,54,20.70
2009,07,31,10,55,20.60
2009,07,31,10,56,20.60
2009,07,31,10,57,20.50
2009,07,31,10,58,20.40
2009,07,31,10,59,20.50
2009,07,31,11,00,20.60
2009,07,31,11,01,20.70
2009,07,31,11,02,20.70
2009,07,31,11,03,20.70
2009,07,31,11,04,20.80
2009,07,31,11,05,20.90
2009,07,31,11,06,20.90
2009,07,31,11,07,20.90
2009,07,31,11,08,20.90
2009,07,31,11,09,20.80
2009,07,31,11,10,20.70
2009,07,31,11,11,20.60
2009,07,31,11,12,20.60
2009,07,31,11,13,20.70
2009,07,31,11,14,20.80
2009,07,31,11,15,20.90
2009,07,31,11,16,21.00
2009,07,31,11,17,21.00
2009,07,31,11,18,21.00
2009,07,31,11,19,21.00
2009,07,31,11,20,21.00
2009,07,31,11,21,21.00
2009,07,31,11,22,21.00
2009,07,31,11,23,21.00
2009,07,31,11,24,21.10
2009,07,31,11,25,21.20
2009,07,31,11,26,21.30
2009,07,31,11,27,21.30
2009,07,31,11,28,21.30
2009,07,31,11,29,21.20
2009,07,31,11,30,21.10
2009,07,31,11,31,21.10
2009,07,31,11,32,21.10
2009,07,31,11,33,21.10
2009,07,31,11,34,21.10
2009,07,31,11,35,21.20
2009,07,31,11,36,21.30
2009,07,31,11,37,21.20
2009,07,31,11,38,21.20
2009,07,31,11,39,21.10
2009,07,31,11,40,21.00
2009,07,31,11,41,21.00
2009,07,31,11,42,20.90
2009,07,31,11,43,20.80
2009,07,31,11,44,20.90
2009,07,31,11,45,21.00
2009,07,31,11,46,21.10
2009,07,31,11,47,21.10
2009,07,31,11,48,21.10
2009,07,31,11,49,21.10
2009,07,31,11,50,21.10
2009,07,31,11,51,21.10
2009,07,31,11,52,21.10
2009,07,31,11,53,21.30
2009,07,31,11,54,21.30
2009,07,31,11,55,21.40
2009,07,31,11,56,21.50
2009,07,31,11,57,21.50
2009,07,31,11,58,21.40
2009,07,31,11,59,21.30
2009,07,31,12,00,21.20
2009,07,31,12,01,21.10
2009,07,31,12,02,21.00
2009,07,31,12,03,21.00
2009,07,31,12,04,21.00
2009,07,31,12,05,21.00
2009,07,31,12,06,20.90
2009,07,31,12,07,21.00
2009,07,31,12,08,21.10
2009,07,31,12,09,21.20
2009,07,31,12,10,21.30
2009,07,31,12,11,21.30
2009,07,31,12,12,21.30
2009,07,31,12,13,21.40
2009,07,31,12,14,21.60
2009,07,31,12,15,21.40
2009,07,31,12,16,21.30
2009,07,31,12,17,21.40
2009,07,31,12,18,21.60
2009,07,31,12,19,21.60
2009,07,31,12,20,21.60
2009,07,31,12,21,21.60
2009,07,31,12,22,21.50
2009,07,31,12,23,21.30
2009,07,31,12,24,21.30
2009,07,31,12,25,21.30
2009,07,31,12,26,21.50
2009,07,31,12,27,21.60
2009,07,31,12,28,21.70
2009,07,31,12,29,21.70
2009,07,31,12,30,21.80
2009,07,31,12,31,22.00
2009,07,31,12,32,22.10
2009,07,31,12,33,22.10
2009,07,31,12,34,22.20
2009,07,31,12,35,22.20
2009,07,31,12,36,22.10
2009,07,31,12,37,22.10
2009,07,31,12,38,22.10
2009,07,31,12,39,22.20
2009,07,31,12,40,22.20
2009,07,31,12,41,22.20
2009,07,31,12,42,22.30
2009,07,31,12,43,22.50
2009,07,31,12,44,22.60
2009,07,31,12,45,22.60
2009,07,31,12,46,22.70
2009,07,31,12,47,22.80
2009,07,31,12,48,22.80
2009,07,31,12,49,22.80
2009,07,31,12,50,22.80
2009,07,31,12,51,22.80
2009,07,31,12,52,22.90
2009,07,31,12,53,22.90
2009,07,31,12,54,22.90
2009,07,31,12,55,22.90
2009,07,31,12,56,22.90
2009,07,31,12,57,22.90
2009,07,31,12,58,22.90
2009,07,31,12,59,22.90
2009,07,31,13,00,22.80
2009,07,31,13,01,22.70
2009,07,31,13,02,22.70
2009,07,31,13,03,22.50
2009,07,31,13,04,22.40
2009,07,31,13,05,22.50
2009,07,31,13,06,22.50
2009,07,31,13,07,22.70
2009,07,31,13,08,22.80
2009,07,31,13,09,22.90
2009,07,31,13,10,22.90
2009,07,31,13,11,22.90
2009,07,31,13,12,23.00
2009,07,31,13,13,23.10
2009,07,31,13,14,23.20
2009,07,31,13,15,23.20
2009,07,31,13,16,23.30
2009,07,31,13,17,23.30
2009,07,31,13,18,23.40
2009,07,31,13,19,23.50
2009,07,31,13,20,23.60
2009,07,31,13,21,23.70
2009,07,31,13,22,23.80
2009,07,31,13,23,23.80
2009,07,31,13,24,23.80
2009,07,31,13,25,23.70
2009,07,31,13,26,23.60
2009,07,31,13,27,23.50
2009,07,31,13,28,23.40
2009,07,31,13,29,23.30
2009,07,31,13,30,23.30
2009,07,31,13,31,23.30
2009,07,31,13,32,23.30
2009,07,31,13,33,23.40
2009,07,31,13,34,23.50
2009,07,31,13,35,23.60
2009,07,31,13,36,23.70
2009,07,31,13,37,23.80
2009,07,31,13,38,23.90
2009,07,31,13,39,24.00
2009,07,31,13,40,24.10
2009,07,31,13,41,24.00
2009,07,31,13,42,23.90
2009,07,31,13,43,23.90
2009,07,31,13,44,24.00
2009,07,31,13,45,24.10
2009,07,31,13,46,24.10
2009,07,31,13,47,24.20
2009,07,31,13,48,24.30
2009,07,31,13,49,24.30
2009,07,31,13,50,24.30
2009,07,31,13,51,24.40
2009,07,31,13,52,24.50
2009,07,31,13,53,24.70
2009,07,31,13,54,24.80
2009,07,31,13,55,24.90
2009,07,31,13,56,24.90
2009,07,31,13,57,24.90
2009,07,31,13,58,25.00
2009,07,31,13,59,25.10
2009,07,31,14,00,25.10
2009,07,31,14,01,25.20
2009,07,31,14,02,25.00
2009,07,31,14,03,24.70
2009,07,31,14,04,24.50
2009,07,31,14,05,24.30
2009,07,31,14,06,24.10
2009,07,31,14,07,23.90
2009,07,31,14,08,23.70
2009,07,31,14,09,23.50
2009,07,31,14,10,23.40
2009,07,31,14,11,23.40
2009,07,31,14,12,23.40
2009,07,31,14,13,23.40
2009,07,31,14,14,23.30
2009,07,31,14,15,23.40
2009,07,31,14,16,23.50
2009,07,31,14,17,23.60
2009,07,31,14,18,23.70
2009,07,31,14,19,23.70
2009,07,31,14,20,23.70
2009,07,31,14,21,23.70
2009,07,31,14,22,23.80
2009,07,31,14,23,23.80
2009,07,31,14,24,23.90
2009,07,31,14,25,24.10
2009,07,31,14,26,24.10
2009,07,31,14,27,24.20
2009,07,31,14,28,24.30
2009,07,31,14,29,24.40
2009,07,31,14,30,24.50
2009,07,31,14,31,24.70
2009,07,31,14,32,24.90
2009,07,31,14,33,25.00
2009,07,31,14,34,25.10
2009,07,31,14,35,25.10
2009,07,31,14,36,25.10
2009,07,31,14,37,25.20
2009,07,31,14,38,25.30
2009,07,31,14,39,25.30
2009,07,31,14,40,25.30
2009,07,31,14,41,25.30
2009,07,31,14,42,25.40
2009,07,31,14,43,25.30
2009,07,31,14,44,25.30
2009,07,31,14,45,25.40
2009,07,31,14,46,25.40
2009,07,31,14,47,25.50
2009,07,31,14,48,25.50
2009,07,31,14,49,25.50
2009,07,31,14,50,25.50
2009,07,31,14,51,25.50
2009,07,31,14,52,25.40
2009,07,31,14,53,25.50
2009,07,31,14,54,25.60
2009,07,31,14,55,25.60
2009,07,31,14,56,25.70
2009,07,31,14,57,25.80
2009,07,31,14,58,25.90
2009,07,31,14,59,25.90
2009,07,31,15,00,26.00
2009,07,31,15,01,26.10
2009,07,31,15,02,26.20
2009,07,31,15,03,26.30
2009,07,31,15,04,26.40
2009,07,31,15,05,26.40
2009,07,31,15,06,26.30
2009,07,31,15,07,26.20
2009,07,31,15,08,26.10
2009,07,31,15,09,26.00
2009,07,31,15,10,26.00
2009,07,31,15,11,26.10
2009,07,31,15,12,26.30
2009,07,31,15,13,26.40
2009,07,31,15,14,26.40
2009,07,31,15,15,26.40
2009,07,31,15,16,26.40
2009,07,31,15,17,26.40
2009,07,31,15,18,26.60
2009,07,31,15,19,26.60
2009,07,31,15,20,26.50
2009,07,31,15,21,26.40
2009,07,31,15,22,26.40
2009,07,31,15,23,26.20
2009,07,31,15,24,26.20
2009,07,31,15,25,26.10
2009,07,31,15,26,26.00
2009,07,31,15,27,26.00
2009,07,31,15,28,26.00
2009,07,31,15,29,26.10
2009,07,31,15,30,26.10
2009,07,31,15,31,26.00
2009,07,31,15,32,26.00
2009,07,31,15,33,26.00
2009,07,31,15,34,25.90
2009,07,31,15,35,25.90
2009,07,31,15,36,25.90
2009,07,31,15,37,25.90
2009,07,31,15,38,25.90
2009,07,31,15,39,25.90
2009,07,31,15,40,25.90
2009,07,31,15,41,25.90
2009,07,31,15,42,25.90
2009,07,31,15,43,26.00
2009,07,31,15,44,26.00
2009,07,31,15,45,26.00
2009,07,31,15,46,26.00
2009,07,31,15,47,25.90
2009,07,31,15,48,25.90
2009,07,31,15,49,26.00
2009,07,31,15,50,26.10
2009,07,31,15,51,26.30
2009,07,31,15,52,26.40
2009,07,31,15,53,26.40
2009,07,31,15,54,26.20
2009,07,31,15,55,26.20
2009,07,31,15,56,26.10
2009,07,31,15,57,26.10
2009,07,31,15,58,26.00
2009,07,31,15,59,25.90
2009,07,31,16,00,25.90
2009,07,31,16,01,25.90
2009,07,31,16,02,26.00
2009,07,31,16,03,26.30
2009,07,31,16,04,26.50
2009,07,31,16,05,26.60
2009,07,31,16,06,26.60
2009,07,31,16,07,26.70
2009,07,31,16,08,26.70
2009,07,31,16,09,26.60
2009,07,31,16,10,26.60
2009,07,31,16,11,26.70
2009,07,31,16,12,26.80
2009,07,31,16,13,26.90
2009,07,31,16,14,27.00
2009,07,31,16,15,27.10
2009,07,31,16,16,27.00
2009,07,31,16,17,26.90
2009,07,31,16,18,26.90
2009,07,31,16,19,26.80
2009,07,31,16,20,26.80
2009,07,31,16,21,26.80
2009,07,31,16,22,26.90
2009,07,31,16,23,26.90
2009,07,31,16,24,27.00
2009,07,31,16,25,27.00
2009,07,31,16,26,26.90
2009,07,31,16,27,27.00
2009,07,31,16,28,26.90
2009,07,31,16,29,26.80
2009,07,31,16,30,26.80
2009,07,31,16,31,26.80
2009,07,31,16,32,26.80
2009,07,31,16,33,26.80
2009,07,31,16,34,26.60
2009,07,31,16,35,26.60
2009,07,31,16,36,26.50
2009,07,31,16,37,26.40
2009,07,31,16,38,26.30
2009,07,31,16,39,26.10
2009,07,31,16,40,26.00
2009,07,31,16,41,26.00
2009,07,31,16,42,26.00
2009,07,31,16,43,26.10
2009,07,31,16,44,26.20
2009,07,31,16,45,26.20
2009,07,31,16,46,26.20
2009,07,31,16,47,26.30
2009,07,31,16,48,26.40
2009,07,31,16,49,26.40
2009,07,31,16,50,26.40
2009,07,31,16,51,26.50
2009,07,31,16,52,26.60
2009,07,31,16,53,26.50
2009,07,31,16,54,26.40
2009,07,31,16,55,26.30
2009,07,31,16,56,26.40
2009,07,31,16,57,26.40
2009,07,31,16,58,26.40
2009,07,31,16,59,26.40
2009,07,31,17,00,26.30
2009,07,31,17,01,26.40
2009,07,31,17,02,26.30
2009,07,31,17,03,26.40
2009,07,31,17,04,26.50
2009,07,31,17,05,26.60
2009,07,31,17,06,26.60
2009,07,31,17,07,26.60
2009,07,31,17,08,26.60
2009,07,31,17,09,26.80
2009,07,31,17,10,26.90
2009,07,31,17,11,27.00
2009,07,31,17,12,27.10
2009,07,31,17,13,27.10
2009,07,31,17,14,27.00
2009,07,31,17,15,26.90
2009,07,31,17,16,26.90
2009,07,31,17,17,26.80
2009,07,31,17,18,26.80
2009,07,31,17,19,26.80